Location: Gollag?dem
(16.8053°N, 80.8024°E)
Time: 04:05:38
(UTC+00:00)

Delta 142 - Visible Passes

Search period start: 26 November 2020 00:00
Search period end: 06 December 2020 00:00
Orbit: 548 x 1589 km, 28.4° (Epoch: 25 November)

Date Brightness Start Highest point End Pass type
(mag) Time Alt. Az. Time Alt. Az. Time Alt. Az.
26 Nov 7.4 20:55:57 13° ENE 20:55:57 13° ENE 20:56:47 10° ENE visible
26 Nov 5.7 22:42:30 40° NNW 22:43:15 41° N 22:52:13 10° ENE visible
27 Nov 6.5 21:47:23 29° NE 21:47:23 29° NE 21:52:08 10° ENE visible
27 Nov 6.0 23:33:55 21° NW 23:39:10 40° N 23:48:17 10° ENE visible
28 Nov 5.8 22:38:48 37° N 22:39:23 37° N 22:47:58 10° ENE visible
29 Nov 6.0 00:26:21 10° WNW 00:34:59 49° NNE 00:44:38 10° E visible
29 Nov 6.6 21:43:39 25° NE 21:43:39 25° NE 21:47:42 10° ENE visible
29 Nov 5.9 23:30:11 23° NW 23:35:11 42° N 23:44:20 10° E visible
30 Nov 5.8 22:35:03 37° N 22:35:30 37° N 22:43:53 10° ENE visible
01 Dec 5.8 00:22:11 10° WNW 00:30:45 59° NNE 00:40:38 10° E visible
01 Dec 6.7 21:39:54 22° NE 21:39:54 22° NE 21:43:28 10° ENE visible
01 Dec 5.7 23:26:26 25° NW 23:31:06 48° NNE 23:40:22 10° E visible
02 Dec 5.7 22:31:18 39° N 22:31:34 40° NNE 22:39:54 10° E visible
03 Dec 5.5 00:18:02 10° WNW 00:26:26 74° NNE 00:36:24 10° ESE visible
03 Dec 6.7 21:36:11 21° NE 21:36:11 21° NE 21:39:24 10° ENE visible
03 Dec 5.4 23:22:42 30° NW 23:26:54 59° NNE 23:36:16 10° E visible
04 Dec 5.4 22:27:36 46° NNE 22:27:36 46° NNE 22:35:55 10° E visible
05 Dec 5.3 00:14:08 11° WNW 00:22:01 84° SSW 00:31:53 10° ESE visible
05 Dec 6.7 21:32:31 21° ENE 21:32:31 21° ENE 21:35:28 10° E visible
05 Dec 5.1 23:19:03 36° NW 23:22:38 77° NNE 23:31:58 10° ESE visible
